Weather History for Marion, VA

Change the Weather History Date:

Wednesday, November 21, 2012

  Actual Average (KGEV) Record (KGEV)
Temperature  
Mean Temperature 47 °F -  
Max Temperature 62 °F 49 °F 68 °F (2007)
Min Temperature 32 °F 29 °F 12 °F (1984)
Degree Days  
Heating Degree Days 18    
Moisture  
Dew Point 31 °F    
Average Humidity 62    
Maximum Humidity 94    
Minimum Humidity 24    
Precipitation  
Precipitation 0.00 in - - ()
Sea Level Pressure  
Sea Level Pressure 30.19 in    
Wind  
Wind Speed 2 mph (NNW)    
Max Wind Speed 9 mph    
Max Gust Speed 16 mph    
Visibility 10 miles    
Events      
Averages and records for this station are not official NWS values.
T = Trace of Precipitation, MM = Missing Value Source: NWS Daily Summary

Daily Weather History Graph

Daily Weather History Graph

Search for Another Location

Airport:

Trip Planner

Search our weather history database for the weather conditions in past years. The results will help you decide how hot, cold, wet, or windy it might be!

Date:

Astronomy

Nov. 21, 2012 Rise Set
Actual Time 7:10 AM EST 5:12 PM EST
Civil Twilight 6:42 AM EST 5:40 PM EST
Nautical Twilight 6:10 AM EST 6:11 PM EST
Astronomical Twilight 5:39 AM EST 6:42 PM EST
Moon 1:19 PM EST (11/21) 12:37 AM EST (11/21)
Length of Visible Light 10h 57m
Length of Day
10h 01m
First Quarter, 61% of the Moon is Illuminated
Nov 21
First Quarter
Nov 28
Full
Dec 6
Last Quarter
Dec 13
New
Dec 20
First Quarter

Hourly Weather History & Observations

Time (EST) Temp. Windchill Dew Point Humidity Pressure Visibility Wind Dir Wind Speed Gust Speed Precip Events Conditions
12:15 AM 35.4 °F - 32.5 °F 89% 30.15 in 10.0 mi Calm Calm - N/A   Scattered Clouds
12:35 AM 35.2 °F - 32.4 °F 89% 30.15 in 10.0 mi Calm Calm - N/A   Mostly Cloudy
12:55 AM 34.5 °F - 31.8 °F 90% 30.14 in 10.0 mi Calm Calm - N/A   Scattered Clouds
1:15 AM 37.8 °F 33.3 °F 33.3 °F 84% 30.14 in 10.0 mi West 5.8 mph - N/A   Clear
1:35 AM 33.8 °F 30.8 °F 31.1 °F 90% 30.14 in 10.0 mi SSW 3.5 mph - N/A   Clear
1:55 AM 34.5 °F - 32.0 °F 90% 30.14 in 10.0 mi Calm Calm - N/A   Scattered Clouds
2:15 AM 34.7 °F - 32.0 °F 90% 30.14 in 10.0 mi Calm Calm - N/A   Clear
2:35 AM 35.6 °F - 32.0 °F 87% 30.14 in 10.0 mi Calm Calm - N/A   Clear
2:55 AM 35.2 °F 32.4 °F 32.0 °F 88% 30.14 in 10.0 mi West 3.5 mph - N/A   Clear
3:15 AM 36.7 °F 34.1 °F 32.4 °F 84% 30.14 in 10.0 mi SW 3.5 mph - N/A   Clear
3:35 AM 36.5 °F - 32.0 °F 84% 30.14 in 10.0 mi Calm Calm - N/A   Clear
3:55 AM 34.3 °F - 31.8 °F 90% 30.14 in 10.0 mi Calm Calm - N/A   Clear
4:15 AM 35.1 °F - 32.0 °F 89% 30.14 in 10.0 mi Calm Calm - N/A   Clear
4:35 AM 35.4 °F - 32.0 °F 87% 30.14 in 10.0 mi Calm Calm - N/A   Clear
4:55 AM 34.2 °F - 31.6 °F 90% 30.15 in 10.0 mi Calm Calm - N/A   Clear
5:15 AM 32.9 °F - 30.7 °F 92% 30.16 in 10.0 mi Calm Calm - N/A   Scattered Clouds
5:35 AM 32.4 °F - 30.2 °F 92% 30.16 in 10.0 mi Calm Calm - N/A   Scattered Clouds
5:55 AM 32.7 °F - 30.7 °F 92% 30.16 in 10.0 mi Calm Calm - N/A   Clear
6:15 AM 33.1 °F - 30.6 °F 90% 30.17 in 10.0 mi Calm Calm - N/A   Clear
6:35 AM 32.9 °F - 31.1 °F 93% 30.17 in 10.0 mi Calm Calm - N/A   Clear
6:55 AM 32.5 °F - 31.1 °F 94% 30.18 in 10.0 mi Calm Calm - N/A   Clear
7:15 AM 33.4 °F - 30.6 °F 89% 30.19 in 10.0 mi Calm Calm - N/A   Clear
7:35 AM 32.0 °F - 30.6 °F 94% 30.20 in 10.0 mi Calm Calm - N/A   Clear
7:55 AM 33.3 °F - 30.6 °F 90% 30.20 in 10.0 mi Calm Calm - N/A   Clear
8:15 AM 35.2 °F - 31.8 °F 87% 30.20 in 10.0 mi Calm Calm - N/A   Clear
8:35 AM 37.2 °F - 33.4 °F 86% 30.20 in 10.0 mi Calm Calm - N/A   Clear
8:55 AM 40.3 °F - 34.5 °F 80% 30.21 in 10.0 mi Calm Calm - N/A   Clear
9:15 AM 44.6 °F - 37.9 °F 77% 30.21 in 10.0 mi Calm Calm - N/A   Clear
9:35 AM 49.1 °F - 37.8 °F 65% 30.21 in 10.0 mi Calm Calm - N/A   Clear
9:55 AM 53.2 °F - 38.1 °F 57% 30.21 in 10.0 mi Calm Calm - N/A   Clear
10:15 AM 55.8 °F - 31.6 °F 40% 30.21 in 10.0 mi Calm Calm - N/A   Clear
10:35 AM 57.4 °F - 29.5 °F 35% 30.21 in 10.0 mi Calm Calm - N/A   Clear
10:55 AM 59.2 °F - 29.7 °F 33% 30.21 in 10.0 mi Calm Calm - N/A   Clear
11:15 AM 58.5 °F - 27.9 °F 31% 30.21 in 10.0 mi ESE 3.5 mph - N/A   Clear
11:35 AM 60.8 °F - 29.3 °F 30% 30.20 in 10.0 mi Calm Calm - N/A   Clear
11:55 AM 60.8 °F - 24.8 °F 25% 30.19 in 10.0 mi NNE 6.9 mph - N/A   Clear
12:15 PM 61.2 °F - 24.4 °F 25% 30.18 in 10.0 mi NE 8.1 mph - N/A   Clear
12:35 PM 62.2 °F - 25.2 °F 24% 30.17 in 10.0 mi NE 4.6 mph - N/A   Clear
12:55 PM 61.9 °F - 25.9 °F 25% 30.17 in 10.0 mi North 5.8 mph - N/A   Scattered Clouds
1:15 PM 62.6 °F - 25.9 °F 25% 30.17 in 10.0 mi NW 9.2 mph 16.1 mph N/A   Scattered Clouds
1:35 PM 61.9 °F - 26.6 °F 26% 30.17 in 10.0 mi North 9.2 mph 16.1 mph N/A   Scattered Clouds
1:55 PM 60.4 °F - 27.7 °F 29% 30.17 in 10.0 mi NW 5.8 mph - N/A   Clear
2:15 PM 62.1 °F - 28.8 °F 28% 30.16 in 10.0 mi North 9.2 mph - N/A   Clear
2:35 PM 62.1 °F - 28.0 °F 28% 30.16 in 10.0 mi NNE 6.9 mph - N/A   Clear
2:55 PM 62.1 °F - 27.7 °F 27% 30.16 in 10.0 mi NE 3.5 mph - N/A   Clear
3:15 PM 61.9 °F - 27.5 °F 27% 30.16 in 10.0 mi North 9.2 mph 16.1 mph N/A   Clear
3:35 PM 61.2 °F - 28.6 °F 29% 30.16 in 10.0 mi North 6.9 mph - N/A   Clear
3:55 PM 61.0 °F - 29.1 °F 30% 30.17 in 10.0 mi NW 6.9 mph - N/A   Clear
4:15 PM 60.6 °F - 28.2 °F 29% 30.17 in 10.0 mi NNW 4.6 mph - N/A   Clear
4:35 PM 59.5 °F - 28.4 °F 31% 30.17 in 10.0 mi NW 4.6 mph - N/A   Clear
4:55 PM 57.9 °F - 28.4 °F 32% 30.18 in 10.0 mi WNW 6.9 mph - N/A   Clear
5:15 PM 55.9 °F - 28.4 °F 35% 30.18 in 10.0 mi Calm Calm - N/A   Clear
5:35 PM 54.9 °F - 28.6 °F 37% 30.19 in 10.0 mi NW 4.6 mph - N/A   Clear
5:55 PM 53.4 °F - 29.1 °F 39% 30.20 in 10.0 mi NW 5.8 mph - N/A   Clear
6:15 PM 51.8 °F - 29.7 °F 43% 30.20 in 10.0 mi NW 3.5 mph - N/A   Clear
6:35 PM 50.0 °F - 30.6 °F 47% 30.21 in 10.0 mi Calm Calm - N/A   Clear
6:55 PM 49.1 °F - 30.7 °F 49% 30.21 in 10.0 mi Calm Calm - N/A   Clear
7:15 PM 47.7 °F - 31.1 °F 53% 30.22 in 10.0 mi Calm Calm - N/A   Clear
7:35 PM 47.1 °F - 31.1 °F 54% 30.22 in 10.0 mi Calm Calm - N/A   Clear
7:55 PM 44.2 °F - 31.8 °F 62% 30.23 in 10.0 mi Calm Calm - N/A   Clear
8:15 PM 43.3 °F - 32.0 °F 64% 30.23 in 10.0 mi Calm Calm - N/A   Clear
8:35 PM 43.0 °F - 32.0 °F 65% 30.23 in 10.0 mi Calm Calm - N/A   Clear
8:55 PM 43.0 °F - 31.6 °F 64% 30.23 in 10.0 mi Calm Calm - N/A   Clear
9:15 PM 41.7 °F - 31.6 °F 67% 30.23 in 10.0 mi Calm Calm - N/A   Clear
9:35 PM 41.4 °F - 31.8 °F 69% 30.24 in 10.0 mi Calm Calm - N/A   Clear
9:55 PM 40.5 °F 38.4 °F 31.1 °F 69% 30.24 in 10.0 mi WNW 3.5 mph - N/A   Clear
10:15 PM 40.5 °F - 31.5 °F 70% 30.24 in 10.0 mi Calm Calm - N/A   Clear
10:35 PM 38.1 °F - 31.3 °F 76% 30.23 in 10.0 mi Calm Calm - N/A   Clear
10:55 PM 36.9 °F - 30.7 °F 79% 30.23 in 10.0 mi Calm Calm - N/A   Clear
11:15 PM 37.4 °F - 31.5 °F 79% 30.23 in 10.0 mi Calm Calm - N/A   Clear
11:35 PM 37.2 °F - 30.9 °F 78% 30.23 in 10.0 mi Calm Calm - N/A   Clear
11:55 PM 35.1 °F 32.2 °F 29.8 °F 81% 30.23 in 10.0 mi SSE 3.5 mph - N/A   Clear